EW4169 Weather Reports


Display with metric or nautical units.
time (UTC)temp
F
wind
direction
speed
MPH
gust
MPH
rain 1hr
in
rain 24hr
in
rain mn
in
humidity
%
barometer
mb
20260906041540 67 120 0.0 0.0 0.00 0.00 0.00 92 1010.9
20260906040026 67 120 0.0 0.0 0.00 0.00 0.00 92 1010.9
20260906034539 67 120 0.0 0.0 0.00 0.00 0.00 91 1011.0
20260906033016 67 120 0.0 0.0 0.00 0.00 0.00 91 1011.0
20260906031542 68 120 0.0 0.0 0.00 0.00 0.00 91 1010.9
20260906030008 68 120 0.0 0.0 0.00 0.00 0.00 91 1011.0
20260906024542 68 120 0.0 0.0 0.00 0.00 0.00 90 1011.0
20260906023100 68 120 0.0 0.0 0.00 0.00 0.00 91 1010.9
20260906023007 68 120 0.0 0.0 0.00 0.00 0.00 91 1010.9
20260906021552 68 120 0.0 0.0 0.00 0.00 0.00 90 1010.8
20260906020010 69 120 0.0 0.0 0.00 0.00 0.00 90 1010.8
20260906014551 69 120 0.0 0.0 0.00 0.00 0.00 89 1010.5
20260906013034 69 120 0.0 0.0 0.00 0.00 0.00 89 1010.3
20260906011554 70 120 0.0 0.0 0.00 0.00 0.00 88 1010.2
20260906010017 70 120 0.0 0.0 0.00 0.00 0.00 87 1010.3
20260906004537 70 120 0.0 0.0 0.00 0.00 0.00 87 1010.3
20260906003018 71 120 0.0 0.0 0.00 0.00 0.00 86 1010.1
20260906001542 71 120 0.0 0.0 0.00 0.00 0.00 84 1009.8
20260906000058 71 120 0.0 0.0 0.00 0.00 0.00 82 1009.7
20260905234541 72 120 0.0 0.0 0.00 0.00 0.00 80 1009.6
20260905233003 73 120 0.0 0.0 0.00 0.00 0.00 79 1009.6
20260905231521 73 120 0.0 0.0 0.00 0.00 0.00 77 1009.6
20260905230043 74 120 0.0 0.0 0.00 0.00 0.00 76 1009.6
20260905224525 75 120 0.0 0.0 0.00 0.00 0.00 74 1009.4
20260905223055 75 120 0.0 0.0 0.00 0.00 0.00 73 1009.4
20260905221517 76 120 0.0 0.0 0.00 0.00 0.00 71 1009.3
20260905220039 76 120 0.0 0.0 0.00 0.00 0.00 71 1009.3
20260905214527 76 126 0.0 0.0 0.00 0.00 0.00 71 1009.1
20260905213059 77 108 0.0 1.0 0.00 0.00 0.00 68 1008.9
20260905211511 78 121 0.0 1.0 0.00 0.00 0.00 68 1008.8
20260905210039 78 117 0.0 5.0 0.00 0.00 0.00 71 1008.5
20260905204554 78 153 0.0 2.0 0.00 0.00 0.00 68 1008.4
20260905203040 78 123 0.0 3.0 0.00 0.00 0.00 68 1008.5
20260905201610 79 115 0.0 5.0 0.00 0.00 0.00 68 1008.6
20260905200041 79 105 0.0 2.0 0.00 0.00 0.00 67 1008.8
20260905194553 79 131 0.0 2.0 0.00 0.00 0.00 68 1008.8
20260905193021 78 265 0.0 1.0 0.00 0.00 0.00 68 1009.2
20260905191541 78 265 0.0 0.0 0.00 0.00 0.00 66 1009.4
20260905190019 78 265 0.0 1.0 0.00 0.00 0.00 65 1009.4
20260905184544 79 269 0.0 1.0 0.00 0.00 0.00 64 1009.6
20260905183009 79 122 0.0 2.0 0.00 0.00 0.00 65 1009.9
20260905181552 79 274 0.0 1.0 0.00 0.00 0.00 68 1010.0
20260905180019 80 276 0.0 1.0 0.00 0.00 0.00 66 1009.9
20260905174538 80 108 0.0 1.0 0.00 0.00 0.00 66 1009.9
20260905173021 80 118 0.0 2.0 0.00 0.00 0.00 63 1009.9
20260905171542 80 266 0.0 3.0 0.00 0.00 0.00 67 1010.1
20260905170022 79 271 0.0 2.0 0.00 0.00 0.00 67 1010.2
20260905164547 79 127 0.0 3.0 0.00 0.00 0.00 66 1010.3
20260905163035 79 266 0.0 2.0 0.00 0.00 0.00 67 1010.3
20260905161601 79 276 0.0 4.0 0.00 0.00 0.00 67 1010.3
20260905160051 80 112 0.0 2.0 0.00 0.00 0.00 66 1010.4
20260905154511 80 280 0.0 2.0 0.00 0.00 0.00 64 1010.6
20260905153053 80 135 0.0 2.0 0.00 0.00 0.00 66 1010.6
20260905151528 79 115 0.0 2.0 0.00 0.00 0.00 67 1010.5
20260905150003 77 269 0.0 4.0 0.00 0.00 0.00 72 1010.7
20260905144532 77 276 0.0 2.0 0.00 0.00 0.00 71 1010.7
20260905143053 78 261 0.0 1.0 0.00 0.00 0.00 68 1010.7
20260905141518 79 108 0.0 2.0 0.00 0.00 0.00 67 1010.3
20260905140037 79 248 0.0 1.0 0.00 0.00 0.00 68 1010.1
20260905134516 80 271 0.0 4.0 0.00 0.00 0.00 66 1009.9
20260905133039 79 132 0.0 6.0 0.00 0.00 0.00 67 1009.8
20260905131519 79 281 0.0 6.0 0.00 0.00 0.00 69 1009.7
20260905130045 78 114 0.0 11.0 0.00 0.00 0.00 71 1009.6
20260905124526 77 271 0.0 0.0 0.00 0.00 0.00 81 1009.7
20260905123049 76 231 0.0 0.0 0.00 0.00 0.00 87 1009.8
20260905121531 76 116 0.0 0.0 0.00 0.00 0.00 90 1009.8
20260905120013 75 271 0.0 0.0 0.00 0.00 0.00 89 1009.3
20260905114537 74 271 0.0 0.0 0.00 0.00 0.00 89 1009.3
20260905113016 73 271 0.0 0.0 0.00 0.00 0.00 89 1009.3
20260905111544 72 271 0.0 0.0 0.00 0.00 0.00 89 1009.1
20260905110017 72 271 0.0 0.0 0.00 0.00 0.00 89 1009.1
20260905104612 72 271 0.0 0.0 0.00 0.00 0.00 89 1008.9
20260905103019 72 271 0.0 0.0 0.00 0.00 0.00 89 1008.7
20260905101544 73 271 0.0 0.0 0.00 0.00 0.00 90 1008.4
20260905100028 73 271 0.0 0.0 0.00 0.00 0.00 90 1008.3
20260905094547 73 271 0.0 0.0 0.00 0.00 0.00 90 1008.3
20260905093012 73 271 0.0 0.0 0.00 0.00 0.00 90 1008.4
20260905091605 73 271 0.0 0.0 0.00 0.00 0.00 90 1008.4
20260905090005 73 271 0.0 0.0 0.00 0.00 0.00 91 1008.5
20260905084527 73 272 0.0 0.0 0.00 0.00 0.00 91 1008.4
20260905083007 74 271 0.0 0.0 0.00 0.00 0.00 91 1008.4
20260905081532 74 271 0.0 0.0 0.00 0.00 0.00 91 1008.5
20260905080047 74 271 0.0 0.0 0.00 0.06 0.00 91 1008.4
20260905074523 75 271 0.0 0.0 0.00 0.06 0.00 91 1008.5
20260905073010 75 271 0.0 0.0 0.00 0.06 0.00 90 1008.5
20260905071534 75 271 0.0 0.0 0.00 0.06 0.00 90 1008.7
20260905070020 75 272 0.0 0.0 0.00 0.40 0.00 90 1009.0
20260905064532 76 271 0.0 0.0 0.00 0.40 0.00 90 1009.0
20260905063058 76 271 0.0 0.0 0.00 0.40 0.00 90 1008.8
20260905061521 76 272 0.0 0.0 0.00 0.40 0.00 90 1009.0
20260905060057 76 271 0.0 0.0 0.00 1.26 0.00 90 1009.1
20260905054533 76 275 0.0 0.0 0.00 1.26 0.00 90 1009.0
20260905053048 76 275 0.0 0.0 0.00 1.26 0.00 90 1009.2
20260905051542 76 275 0.0 0.0 0.00 1.26 0.00 91 1009.2
20260905050052 76 275 0.0 0.0 0.00 1.26 0.00 91 1009.6
20260905044520 76 275 0.0 0.0 0.00 1.26 0.00 90 1009.8
20260905043055 76 275 0.0 0.0 0.00 1.26 0.00 90 1009.9